N222HL KCMH-KOWB

Flight info

Callsign N222HL
Flight time N/A
Altitude 38000
Route PKACZ TARRY
Aircraft CL60/M-SBDE1E2E3FGHIJ1J4J5J7M3RWXYZ/LB1V1D1

Departure

Time 2026-05-06 03:00
Airport John Glenn Columbus International Airport (KCMH)

Arrival

Time N/A
Airport Owensboro Daviess County Airport (KOWB)
Time Latitude Longitude Altitude Speed Heading
2026-05-06 02:52 39.99077 -82.89317 810 ft 0 kts 269°
2026-05-06 02:56 39.99075 -82.89345 810 ft 10 kts 266°
2026-05-06 02:57 39.99076 -82.89457 809 ft 4 kts 289°
2026-05-06 02:57 39.99067 -82.89462 809 ft 6 kts 96°
2026-05-06 02:57 39.99091 -82.89425 809 ft 12 kts 18°
2026-05-06 02:57 39.99166 -82.89363 812 ft 15 kts 85°
2026-05-06 02:58 39.99158 -82.89203 812 ft 20 kts 94°
2026-05-06 02:58 39.99147 -82.89002 812 ft 23 kts 94°
2026-05-06 02:58 39.99134 -82.88777 812 ft 26 kts 95°
2026-05-06 02:58 39.99121 -82.88550 812 ft 22 kts 94°
2026-05-06 02:59 39.99109 -82.88337 812 ft 24 kts 94°
2026-05-06 02:59 39.99175 -82.88250 812 ft 14 kts 350°
2026-05-06 02:59 39.99220 -82.88357 812 ft 24 kts 273°
2026-05-06 02:59 39.99258 -82.89030 812 ft 128 kts 274°
2026-05-06 03:00 39.99349 -82.90442 1387 ft 173 kts 276°
2026-05-06 03:00 39.99536 -82.92027 2533 ft 193 kts 284°
2026-05-06 03:00 40.00011 -82.93656 3854 ft 200 kts 278°
2026-05-06 03:00 40.00201 -82.95432 4606 ft 197 kts 269°
2026-05-06 03:01 40.00304 -82.97171 4897 ft 190 kts 267°
2026-05-06 03:01 40.00345 -82.99017 5287 ft 223 kts 265°
2026-05-06 03:01 40.00386 -83.00959 6991 ft 220 kts 265°
2026-05-06 03:01 40.00429 -83.02763 8823 ft 205 kts 265°
2026-05-06 03:02 40.00465 -83.04493 10403 ft 197 kts 265°
2026-05-06 03:02 40.00498 -83.06222 11739 ft 198 kts 265°
2026-05-06 03:02 40.00529 -83.07962 12983 ft 200 kts 265°
2026-05-06 03:02 40.00552 -83.09744 14200 ft 200 kts 263°
2026-05-06 03:03 40.00135 -83.11387 15172 ft 206 kts 240°
2026-05-06 03:03 39.99262 -83.13103 15474 ft 246 kts 237°
2026-05-06 03:03 39.98246 -83.15018 16137 ft 265 kts 237°
2026-05-06 03:03 39.97188 -83.17015 16993 ft 273 kts 238°
2026-05-06 03:04 39.96101 -83.19068 17870 ft 279 kts 238°
2026-05-06 03:04 39.95005 -83.21143 18713 ft 285 kts 238°
2026-05-06 03:04 39.93871 -83.23287 19592 ft 288 kts 238°
2026-05-06 03:04 39.92746 -83.25417 20443 ft 291 kts 238°
2026-05-06 03:05 39.91601 -83.27583 21265 ft 294 kts 238°
2026-05-06 03:05 39.90447 -83.29766 22088 ft 295 kts 238°
2026-05-06 03:05 39.89287 -83.31960 22835 ft 299 kts 238°
2026-05-06 03:05 39.88103 -83.34203 23582 ft 304 kts 238°
2026-05-06 03:06 39.86908 -83.36463 24360 ft 306 kts 239°
2026-05-06 03:06 39.85701 -83.38747 25053 ft 311 kts 239°
2026-05-06 03:06 39.84465 -83.41084 25755 ft 314 kts 241°
2026-05-06 03:06 39.83223 -83.43438 26351 ft 319 kts 240°
2026-05-06 03:07 39.81949 -83.45844 27028 ft 322 kts 240°
2026-05-06 03:07 39.80612 -83.48367 27685 ft 326 kts 241°
2026-05-06 03:07 39.79305 -83.50837 28238 ft 331 kts 241°
2026-05-06 03:07 39.77979 -83.53335 28857 ft 333 kts 242°
2026-05-06 03:08 39.76661 -83.55813 29535 ft 333 kts 242°
2026-05-06 03:08 39.75354 -83.58270 30118 ft 334 kts 243°
2026-05-06 03:08 39.74030 -83.60758 30663 ft 335 kts 243°
2026-05-06 03:08 39.72696 -83.63265 31165 ft 337 kts 244°
2026-05-06 03:09 39.71365 -83.65763 31677 ft 337 kts 243°
2026-05-06 03:09 39.70034 -83.68259 32182 ft 338 kts 244°
2026-05-06 03:09 39.68707 -83.70747 32635 ft 340 kts 244°
2026-05-06 03:09 39.67361 -83.73270 33058 ft 341 kts 244°
2026-05-06 03:10 39.66000 -83.75817 33535 ft 341 kts 244°
2026-05-06 03:10 39.64666 -83.78311 34073 ft 341 kts 245°
2026-05-06 03:10 39.63324 -83.80817 34638 ft 339 kts 245°
2026-05-06 03:10 39.61976 -83.83331 35224 ft 337 kts 245°
2026-05-06 03:11 39.60663 -83.85779 35834 ft 333 kts 245°
2026-05-06 03:11 39.59337 -83.88247 36409 ft 330 kts 245°
2026-05-06 03:11 39.58037 -83.90669 36857 ft 330 kts 245°
2026-05-06 03:11 39.56731 -83.93103 37263 ft 329 kts 245°
2026-05-06 03:12 39.55431 -83.95524 37650 ft 328 kts 245°
2026-05-06 03:12 39.54131 -83.97945 37836 ft 332 kts 245°
2026-05-06 03:12 39.52800 -84.00429 37834 ft 340 kts 245°
2026-05-06 03:13 39.50037 -84.05574 37834 ft 354 kts 245°
2026-05-06 03:13 39.47375 -84.10516 37831 ft 366 kts 244°